Location: Niles Junction
(37.5763°N, 121.9714°W)
Time: 13:20:22
(UTC+00:00)

Meteor 2-19 Rocket - Pass Details

Date: 29 October 2020
Orbit: 936 x 959 km, 82.5° (Epoch: 01 December)

Event Time Altitude Azimuth Distance (km) Brightness Sun altitude
Rises 13:39:07 0° 192° (SSW) 3,604 7.4 -10.7°
Reaches altitude 10° 13:41:37 10° 195° (SSW) 2,659 6.7 -10.3°
Maximum altitude 13:47:40 70° 278° (W) 1,002 4.4 -9.1°
Drops below altitude 10° 13:53:44 10° 2° (N) 2,661 6.7 -7.9°
Sets 13:56:15 0° 5° (N) 3,607 7.4 -7.4°
